Location: Göttingen
(51.5413°N, 9.9158°E)
Time: 16:46:05
(UTC+02:00)

BEESAT - Pass Details

Date: 05 July 2022
Orbit: 700 x 706 km, 98.6° (Epoch: 13 August)

Event Time Altitude Azimuth Distance (km) Brightness Sun altitude
Rises 23:26:55 0° 5° (N) 3,109 ? -11.3°
Reaches altitude 10° 23:29:40 10° 350° (N) 2,187 ? -11.5°
Maximum altitude 23:33:07 20° 303° (WNW) 1,598 ? -11.8°
Drops below altitude 10° 23:36:34 10° 257° (WSW) 2,179 ? -12.0°
Sets 23:39:19 0° 241° (WSW) 3,094 ? -12.2°
